WAT251 PANC-KMIA

Flight info

Callsign WAT251
Flight time N/A
Altitude 31000
Route DCT JOH DCT YAK J541 SSR DCT 5726N13228W DCT YXS DCT DESNU/N0482F330 DCT HASOS DCT TIMMR DCT FSD Q19 DSM J45 IRK DCT FAM J151 GETME DCT VLKNN Q139 MGMRY DCT ACORI FROGZ5
Aircraft B77L/H-SDE1E2E3FGHIJ2J3J4J5M1RWXY/LB1D1

Departure

Time N/A
Airport Ted Stevens Anchorage International Airport (PANC)

Arrival

Time 2026-05-03 22:15
Airport Miami International Airport (KMIA)
Time Latitude Longitude Altitude Speed Heading
2026-05-03 20:15 38.07068 -90.60068 32968 ft 542 kts 146°
2026-05-03 20:15 38.01012 -90.54446 32973 ft 540 kts 147°
2026-05-03 20:16 37.94928 -90.48811 32988 ft 540 kts 147°
2026-05-03 20:16 37.88868 -90.43208 33001 ft 540 kts 146°
2026-05-03 20:17 37.82735 -90.37550 33002 ft 539 kts 146°
2026-05-03 20:17 37.76680 -90.31976 33001 ft 538 kts 147°
2026-05-03 20:18 37.70612 -90.26401 33000 ft 537 kts 147°
2026-05-03 20:18 37.64578 -90.20914 32995 ft 536 kts 148°
2026-05-03 20:19 37.58467 -90.15519 32986 ft 535 kts 148°
2026-05-03 20:19 37.52346 -90.10124 33004 ft 535 kts 148°
2026-05-03 20:20 37.46222 -90.04733 32998 ft 534 kts 148°
2026-05-03 20:20 37.40128 -89.99376 33006 ft 535 kts 148°
2026-05-03 20:21 37.34074 -89.94064 33015 ft 534 kts 148°
2026-05-03 20:21 37.28002 -89.88745 33024 ft 532 kts 148°
2026-05-03 20:22 37.21905 -89.83416 33040 ft 533 kts 148°
2026-05-03 20:22 37.15839 -89.78123 33047 ft 532 kts 148°
2026-05-03 20:23 37.09740 -89.72813 33044 ft 533 kts 148°
2026-05-03 20:23 37.03680 -89.67547 33064 ft 532 kts 148°
2026-05-03 20:24 36.97598 -89.62271 33070 ft 530 kts 148°
2026-05-03 20:24 36.91534 -89.57022 33070 ft 530 kts 148°
2026-05-03 20:25 36.85452 -89.51768 33072 ft 531 kts 148°
2026-05-03 20:25 36.79348 -89.46503 33064 ft 531 kts 148°
2026-05-03 20:26 36.73245 -89.41251 33063 ft 529 kts 148°
2026-05-03 20:26 36.67260 -89.36109 33066 ft 529 kts 147°
2026-05-03 20:27 36.61330 -89.31024 33058 ft 527 kts 148°
2026-05-03 20:27 36.55226 -89.25801 33060 ft 528 kts 148°
2026-05-03 20:28 36.49193 -89.20648 33070 ft 528 kts 148°
2026-05-03 20:28 36.43149 -89.15496 33081 ft 527 kts 148°
2026-05-03 20:29 36.37108 -89.10356 33090 ft 527 kts 148°
2026-05-03 20:29 36.31049 -89.05211 33094 ft 526 kts 148°
2026-05-03 20:30 36.25004 -89.00086 33086 ft 526 kts 148°
2026-05-03 20:30 36.18940 -88.94951 33087 ft 525 kts 148°
2026-05-03 20:31 36.12902 -88.89848 33086 ft 526 kts 148°
2026-05-03 20:31 36.06884 -88.84772 33081 ft 524 kts 148°
2026-05-03 20:32 36.00824 -88.79670 33079 ft 524 kts 148°
2026-05-03 20:32 35.94801 -88.74609 33081 ft 523 kts 148°
2026-05-03 20:33 35.88796 -88.69573 33083 ft 523 kts 148°
2026-05-03 20:33 35.82786 -88.64541 33088 ft 522 kts 148°
2026-05-03 20:34 35.76763 -88.59508 33084 ft 523 kts 148°
2026-05-03 20:34 35.70732 -88.54478 33090 ft 520 kts 148°
2026-05-03 20:35 35.64755 -88.49502 33090 ft 520 kts 148°
2026-05-03 20:35 35.58751 -88.44514 33096 ft 521 kts 148°
2026-05-03 20:36 35.52734 -88.39526 33098 ft 519 kts 148°
2026-05-03 20:36 35.46756 -88.34582 33096 ft 519 kts 148°
2026-05-03 20:37 35.40777 -88.29647 33087 ft 516 kts 148°
2026-05-03 20:37 35.34830 -88.24747 33098 ft 518 kts 148°
2026-05-03 20:38 35.28835 -88.19818 33098 ft 518 kts 148°
2026-05-03 20:38 35.22842 -88.14898 33108 ft 516 kts 148°
2026-05-03 20:39 35.16877 -88.10010 33113 ft 514 kts 148°
2026-05-03 20:39 35.10917 -88.05135 33106 ft 513 kts 148°
2026-05-03 20:40 35.04934 -88.00249 33100 ft 513 kts 148°
2026-05-03 20:40 34.98966 -87.95386 33109 ft 513 kts 148°
2026-05-03 20:41 34.93029 -87.90556 33108 ft 512 kts 148°
2026-05-03 20:41 34.87060 -87.85709 33103 ft 513 kts 148°
2026-05-03 20:42 34.81105 -87.80880 33103 ft 511 kts 148°
2026-05-03 20:42 34.75138 -87.76051 33109 ft 512 kts 148°
2026-05-03 20:43 34.69208 -87.71260 33122 ft 511 kts 148°
2026-05-03 20:43 34.63301 -87.66496 33123 ft 510 kts 148°
2026-05-03 20:44 34.57334 -87.61692 33119 ft 511 kts 148°
2026-05-03 20:44 34.51434 -87.56950 33115 ft 512 kts 148°
2026-05-03 20:45 34.45478 -87.52172 33112 ft 511 kts 148°
2026-05-03 20:45 34.39504 -87.47386 33109 ft 510 kts 148°
2026-05-03 20:46 34.33594 -87.42661 33107 ft 509 kts 148°
2026-05-03 20:46 34.27657 -87.37923 33115 ft 507 kts 148°
2026-05-03 20:47 34.21762 -87.33225 33105 ft 508 kts 148°
2026-05-03 20:47 34.15841 -87.28516 33109 ft 508 kts 148°
2026-05-03 20:48 34.09956 -87.23843 33111 ft 507 kts 148°
2026-05-03 20:48 34.04039 -87.19151 33108 ft 506 kts 148°
2026-05-03 20:49 33.98183 -87.14516 33110 ft 508 kts 148°
2026-05-03 20:49 33.92298 -87.09864 33108 ft 507 kts 149°
2026-05-03 20:50 33.86400 -87.05210 33097 ft 506 kts 149°
2026-05-03 20:50 33.80524 -87.00581 33095 ft 508 kts 149°
2026-05-03 20:51 33.74598 -86.95921 33113 ft 507 kts 149°
2026-05-03 20:51 33.68716 -86.91346 33102 ft 503 kts 153°
2026-05-03 20:52 33.62338 -86.88068 33129 ft 498 kts 164°
2026-05-03 20:52 33.55749 -86.85382 33130 ft 498 kts 164°
2026-05-03 20:53 33.49211 -86.82726 33134 ft 497 kts 165°
2026-05-03 20:53 33.42700 -86.80086 33122 ft 494 kts 165°
2026-05-03 20:54 33.36172 -86.77444 33128 ft 495 kts 165°
2026-05-03 20:54 33.26450 -86.73515 33127 ft 492 kts 166°
2026-05-03 20:55 33.19935 -86.70888 33137 ft 491 kts 166°
2026-05-03 20:55 33.13491 -86.68294 33116 ft 490 kts 166°
2026-05-03 20:56 33.07048 -86.65704 33114 ft 490 kts 166°
2026-05-03 20:56 33.00590 -86.63110 33106 ft 487 kts 166°
2026-05-03 20:57 32.94187 -86.60543 33106 ft 483 kts 167°
2026-05-03 20:57 32.87815 -86.57995 33105 ft 482 kts 167°
2026-05-03 20:58 32.81388 -86.55428 33106 ft 486 kts 167°
2026-05-03 20:58 32.74991 -86.52876 33111 ft 482 kts 167°
2026-05-03 20:59 32.68639 -86.50346 33110 ft 484 kts 167°
2026-05-03 20:59 32.62225 -86.47794 33110 ft 483 kts 167°
2026-05-03 21:00 32.56919 -86.45686 33107 ft 481 kts 168°
2026-05-03 21:00 32.49462 -86.42729 33115 ft 481 kts 168°
2026-05-03 21:01 32.43172 -86.40238 33121 ft 480 kts 168°
2026-05-03 21:01 32.36816 -86.37725 33124 ft 478 kts 168°
2026-05-03 21:02 32.30513 -86.35237 33121 ft 479 kts 168°
2026-05-03 21:02 32.24266 -86.32602 33099 ft 482 kts 162°
2026-05-03 21:03 32.21281 -86.30650 33102 ft 493 kts 154°
2026-05-03 21:03 32.18523 -86.28172 33108 ft 501 kts 147°
2026-05-03 21:03 32.13201 -86.22682 33107 ft 502 kts 146°
2026-05-03 21:04 32.07976 -86.17276 33104 ft 501 kts 147°
2026-05-03 21:04 32.02749 -86.11885 33100 ft 501 kts 147°
2026-05-03 21:05 31.97484 -86.06471 33103 ft 501 kts 147°
2026-05-03 21:05 31.92239 -86.01087 33110 ft 501 kts 147°
2026-05-03 21:06 31.86988 -85.95708 33126 ft 502 kts 147°
2026-05-03 21:06 31.81700 -85.90298 33118 ft 501 kts 147°
2026-05-03 21:07 31.76531 -85.84792 33109 ft 506 kts 141°
2026-05-03 21:07 31.71761 -85.78620 33102 ft 512 kts 139°
2026-05-03 21:08 31.66949 -85.72347 33099 ft 511 kts 140°
2026-05-03 21:08 31.62172 -85.66139 33098 ft 513 kts 140°
2026-05-03 21:09 31.57360 -85.59898 33103 ft 511 kts 140°
2026-05-03 21:09 31.52597 -85.53735 33109 ft 512 kts 140°
2026-05-03 21:10 31.47815 -85.47557 33114 ft 512 kts 140°
2026-05-03 21:10 31.43029 -85.41385 33117 ft 514 kts 140°
2026-05-03 21:11 31.38219 -85.35191 33123 ft 512 kts 140°
2026-05-03 21:11 31.33415 -85.29016 33103 ft 511 kts 141°
2026-05-03 21:12 31.28639 -85.22890 33101 ft 514 kts 140°
2026-05-03 21:12 31.23794 -85.16682 33100 ft 513 kts 140°
2026-05-03 21:13 31.18985 -85.10532 33094 ft 514 kts 140°
2026-05-03 21:13 31.14173 -85.04385 33090 ft 510 kts 141°
2026-05-03 21:14 31.09352 -84.98244 33089 ft 514 kts 141°
2026-05-03 21:14 31.04557 -84.92138 33090 ft 510 kts 141°
2026-05-03 21:15 30.99717 -84.85988 33094 ft 514 kts 140°
2026-05-03 21:15 30.94873 -84.79839 33098 ft 513 kts 140°
2026-05-03 21:16 30.90022 -84.73698 33102 ft 516 kts 140°
2026-05-03 21:16 30.85180 -84.67572 33108 ft 514 kts 141°
2026-05-03 21:17 30.81109 -84.62434 33110 ft 515 kts 141°
2026-05-03 21:17 30.75442 -84.55290 33101 ft 516 kts 141°
2026-05-03 21:18 30.70582 -84.49174 33099 ft 517 kts 141°
2026-05-03 21:18 30.65692 -84.43032 33100 ft 517 kts 141°
2026-05-03 21:19 30.60867 -84.36978 33100 ft 515 kts 141°
2026-05-03 21:19 30.55959 -84.30831 33079 ft 515 kts 141°
2026-05-03 21:20 30.51040 -84.24683 33087 ft 520 kts 141°
2026-05-03 21:20 30.46096 -84.18509 33074 ft 518 kts 141°
2026-05-03 21:21 30.41211 -84.12416 33082 ft 514 kts 142°
2026-05-03 21:21 30.35967 -84.06936 33071 ft 502 kts 155°
2026-05-03 21:22 30.30090 -84.02840 33062 ft 491 kts 159°
2026-05-03 21:22 30.24155 -83.98881 33063 ft 493 kts 159°
2026-05-03 21:23 30.18152 -83.94889 33052 ft 495 kts 160°
2026-05-03 21:23 30.12139 -83.90905 33053 ft 494 kts 160°
2026-05-03 21:24 30.06185 -83.86968 33053 ft 497 kts 160°
2026-05-03 21:24 30.00140 -83.82974 33051 ft 493 kts 160°
2026-05-03 21:25 29.94189 -83.79051 33044 ft 493 kts 160°
2026-05-03 21:25 29.88175 -83.75095 33051 ft 496 kts 160°
2026-05-03 21:26 29.82196 -83.71165 33059 ft 496 kts 160°
2026-05-03 21:26 29.76225 -83.67245 33045 ft 492 kts 160°
2026-05-03 21:27 29.70259 -83.63339 33057 ft 495 kts 160°
2026-05-03 21:27 29.64269 -83.59418 33051 ft 498 kts 160°
2026-05-03 21:28 29.58255 -83.55486 33066 ft 493 kts 160°
2026-05-03 21:28 29.52292 -83.51597 33050 ft 497 kts 161°
2026-05-03 21:29 29.46263 -83.47669 33029 ft 497 kts 161°
2026-05-03 21:29 29.40270 -83.43765 33038 ft 491 kts 161°
2026-05-03 21:30 29.34277 -83.39873 33040 ft 495 kts 161°
2026-05-03 21:30 29.28284 -83.35983 33049 ft 497 kts 161°
2026-05-03 21:31 29.22159 -83.32471 33011 ft 480 kts 167°
2026-05-03 21:31 29.15983 -83.29342 33010 ft 482 kts 168°
2026-05-03 21:32 29.09832 -83.26229 32992 ft 486 kts 168°
2026-05-03 21:32 29.03628 -83.23088 32990 ft 486 kts 168°
2026-05-03 21:33 28.97463 -83.19970 33001 ft 483 kts 168°
2026-05-03 21:33 28.91332 -83.16873 33008 ft 484 kts 168°
2026-05-03 21:34 28.85165 -83.13763 33011 ft 484 kts 168°
2026-05-03 21:34 28.78958 -83.10638 33011 ft 485 kts 168°
2026-05-03 21:35 28.72829 -83.07550 33014 ft 480 kts 168°
2026-05-03 21:35 28.66697 -83.04474 33018 ft 484 kts 168°
2026-05-03 21:36 28.60497 -83.01359 33016 ft 481 kts 168°
2026-05-03 21:36 28.54367 -82.98287 33001 ft 482 kts 168°
2026-05-03 21:37 28.48140 -82.95174 33011 ft 484 kts 168°
2026-05-03 21:37 28.42036 -82.92117 33001 ft 480 kts 168°
2026-05-03 21:38 28.35872 -82.89045 33009 ft 484 kts 168°
2026-05-03 21:38 28.29681 -82.85957 33009 ft 485 kts 168°
2026-05-03 21:39 28.23504 -82.82878 33016 ft 483 kts 168°
2026-05-03 21:39 28.17324 -82.79803 33013 ft 481 kts 168°
2026-05-03 21:40 28.11163 -82.76747 33011 ft 487 kts 168°
2026-05-03 21:40 28.04983 -82.73676 33024 ft 480 kts 168°
2026-05-03 21:41 27.98716 -82.71307 33022 ft 468 kts 181°
2026-05-03 21:41 27.92364 -82.70014 33027 ft 456 kts 181°
2026-05-03 21:42 27.86048 -82.68773 33036 ft 466 kts 182°
2026-05-03 21:42 27.79729 -82.67521 33035 ft 456 kts 181°
2026-05-03 21:43 27.73401 -82.66280 33031 ft 464 kts 181°
2026-05-03 21:43 27.67084 -82.65033 33035 ft 460 kts 182°
2026-05-03 21:44 27.60713 -82.63785 33032 ft 462 kts 181°
2026-05-03 21:44 27.54398 -82.62543 33033 ft 460 kts 181°
2026-05-03 21:45 27.48174 -82.60986 33030 ft 469 kts 176°
2026-05-03 21:45 27.41843 -82.59059 33031 ft 474 kts 176°
2026-05-03 21:46 27.35431 -82.57139 33036 ft 474 kts 176°
2026-05-03 21:46 27.29063 -82.55248 33032 ft 472 kts 176°
2026-05-03 21:47 27.22719 -82.53380 33032 ft 472 kts 176°
2026-05-03 21:47 27.16328 -82.51505 33031 ft 473 kts 176°
2026-05-03 21:48 27.09916 -82.49630 33034 ft 475 kts 176°
2026-05-03 21:48 27.03596 -82.47775 33038 ft 459 kts 176°
2026-05-03 21:49 27.00580 -82.46887 32955 ft 446 kts 176°
2026-05-03 21:49 26.97553 -82.46005 32295 ft 448 kts 176°
2026-05-03 21:49 26.94540 -82.45057 31321 ft 454 kts 169°
2026-05-03 21:49 26.91655 -82.43618 30780 ft 456 kts 160°
2026-05-03 21:50 26.89032 -82.41679 30476 ft 451 kts 150°
2026-05-03 21:50 26.86647 -82.39472 30174 ft 439 kts 148°
2026-05-03 21:50 26.84326 -82.37276 29386 ft 439 kts 148°
2026-05-03 21:50 26.81987 -82.35058 28167 ft 448 kts 147°
2026-05-03 21:51 26.79587 -82.32778 26805 ft 457 kts 147°
2026-05-03 21:51 26.77188 -82.30493 25539 ft 462 kts 146°
2026-05-03 21:51 26.74746 -82.28161 24568 ft 465 kts 146°
2026-05-03 21:51 26.72308 -82.25831 24076 ft 459 kts 146°
2026-05-03 21:52 26.69887 -82.23514 24016 ft 455 kts 146°
2026-05-03 21:52 26.67459 -82.21200 24018 ft 465 kts 146°
2026-05-03 21:52 26.65006 -82.18856 24018 ft 460 kts 146°
2026-05-03 21:52 26.62578 -82.16536 24020 ft 459 kts 146°
2026-05-03 21:53 26.60125 -82.14198 24022 ft 461 kts 146°
2026-05-03 21:53 26.57715 -82.11898 24022 ft 460 kts 146°
2026-05-03 21:53 26.55257 -82.09556 24024 ft 461 kts 145°
2026-05-03 21:53 26.52810 -82.07224 24022 ft 459 kts 145°
2026-05-03 21:54 26.50420 -82.04858 24025 ft 462 kts 143°
2026-05-03 21:54 26.48027 -82.02435 24025 ft 463 kts 143°
2026-05-03 21:54 26.45674 -82.00051 24026 ft 461 kts 143°
2026-05-03 21:54 26.43277 -81.97630 24022 ft 463 kts 143°
2026-05-03 21:55 26.40906 -81.95236 23855 ft 456 kts 143°
2026-05-03 21:55 26.38542 -81.92853 23225 ft 455 kts 143°
2026-05-03 21:55 26.36242 -81.90537 22839 ft 448 kts 143°
2026-05-03 21:55 26.33936 -81.88217 22378 ft 444 kts 143°
2026-05-03 21:56 26.31636 -81.85907 21861 ft 441 kts 143°
2026-05-03 21:56 26.29373 -81.83635 21332 ft 438 kts 143°
2026-05-03 21:56 26.27131 -81.81383 20993 ft 423 kts 143°
2026-05-03 21:56 26.25070 -81.79183 21024 ft 411 kts 136°
2026-05-03 21:57 26.23366 -81.76627 20992 ft 414 kts 126°
2026-05-03 21:57 26.21968 -81.73742 20514 ft 424 kts 121°
2026-05-03 21:57 26.20670 -81.70826 19954 ft 425 kts 120°
2026-05-03 21:57 26.19368 -81.67866 19460 ft 424 kts 120°
2026-05-03 21:58 26.18079 -81.64927 18990 ft 421 kts 120°
2026-05-03 21:58 26.16799 -81.62003 18528 ft 419 kts 120°
2026-05-03 21:58 26.15545 -81.59132 18044 ft 412 kts 120°
2026-05-03 21:58 26.14309 -81.56303 17688 ft 402 kts 120°
2026-05-03 21:59 26.13090 -81.53513 17220 ft 401 kts 119°
2026-05-03 21:59 26.11868 -81.50719 16746 ft 400 kts 119°
2026-05-03 21:59 26.10662 -81.47961 16309 ft 398 kts 119°
2026-05-03 21:59 26.09445 -81.45177 15854 ft 397 kts 119°
2026-05-03 22:00 26.08252 -81.42449 15419 ft 394 kts 119°
2026-05-03 22:00 26.07054 -81.39714 14985 ft 392 kts 119°
2026-05-03 22:00 26.05866 -81.36988 14566 ft 389 kts 118°
2026-05-03 22:00 26.04700 -81.34312 14182 ft 385 kts 119°
2026-05-03 22:01 26.03541 -81.31650 13798 ft 381 kts 119°
2026-05-03 22:01 26.02384 -81.28996 13417 ft 378 kts 119°
2026-05-03 22:01 26.01258 -81.26414 13038 ft 374 kts 119°
2026-05-03 22:01 26.00132 -81.23833 12652 ft 367 kts 119°
2026-05-03 22:02 25.99029 -81.21307 12309 ft 360 kts 119°
2026-05-03 22:02 25.97942 -81.18821 11936 ft 357 kts 119°
2026-05-03 22:02 25.96855 -81.16338 11578 ft 355 kts 119°
2026-05-03 22:02 25.95780 -81.13881 11217 ft 352 kts 118°
2026-05-03 22:03 25.94715 -81.11449 10870 ft 349 kts 118°
2026-05-03 22:03 25.93657 -81.09032 10626 ft 345 kts 119°
2026-05-03 22:03 25.92616 -81.06659 10407 ft 345 kts 118°
2026-05-03 22:03 25.91563 -81.04258 10175 ft 345 kts 118°
2026-05-03 22:04 25.90551 -81.01839 9939 ft 342 kts 115°
2026-05-03 22:04 25.89654 -80.99451 9586 ft 335 kts 115°
2026-05-03 22:04 25.88777 -80.97107 9333 ft 321 kts 115°
2026-05-03 22:04 25.87912 -80.94823 9116 ft 313 kts 115°
2026-05-03 22:05 25.87085 -80.92657 8892 ft 305 kts 116°
2026-05-03 22:05 25.86265 -80.90520 8631 ft 298 kts 116°
2026-05-03 22:05 25.85461 -80.88427 8345 ft 289 kts 116°
2026-05-03 22:05 25.84681 -80.86396 8091 ft 282 kts 115°
2026-05-03 22:06 25.83934 -80.84453 7853 ft 270 kts 116°
2026-05-03 22:06 25.83202 -80.82550 7534 ft 261 kts 116°
2026-05-03 22:06 25.82506 -80.80743 7245 ft 252 kts 116°
2026-05-03 22:06 25.81817 -80.78957 6975 ft 249 kts 115°
2026-05-03 22:07 25.81138 -80.77196 6704 ft 247 kts 115°
2026-05-03 22:07 25.80470 -80.75463 6456 ft 246 kts 115°
2026-05-03 22:07 25.79802 -80.73731 6217 ft 244 kts 115°
2026-05-03 22:07 25.79130 -80.71990 5970 ft 242 kts 115°
2026-05-03 22:08 25.78476 -80.70296 5729 ft 240 kts 115°
2026-05-03 22:08 25.77820 -80.68596 5522 ft 238 kts 115°
2026-05-03 22:08 25.77242 -80.66859 5387 ft 241 kts 102°
2026-05-03 22:08 25.77163 -80.65029 5167 ft 241 kts 89°
2026-05-03 22:09 25.77238 -80.63160 4909 ft 241 kts 87°
2026-05-03 22:09 25.77326 -80.61311 4631 ft 238 kts 87°
2026-05-03 22:09 25.77412 -80.59477 4341 ft 236 kts 87°
2026-05-03 22:10 25.77599 -80.55898 3834 ft 232 kts 85°
2026-05-03 22:10 25.77709 -80.54115 3645 ft 229 kts 86°
2026-05-03 22:10 25.77791 -80.52338 3455 ft 231 kts 86°
2026-05-03 22:10 25.77866 -80.50583 3251 ft 229 kts 86°
2026-05-03 22:11 25.77937 -80.48822 2970 ft 228 kts 86°
2026-05-03 22:11 25.78006 -80.47058 2691 ft 226 kts 86°
2026-05-03 22:11 25.78073 -80.45335 2416 ft 224 kts 85°
2026-05-03 22:11 25.78140 -80.43627 2140 ft 222 kts 86°
2026-05-03 22:12 25.78204 -80.41948 1867 ft 208 kts 85°
2026-05-03 22:12 25.78256 -80.40408 1615 ft 195 kts 85°
2026-05-03 22:12 25.78310 -80.38961 1377 ft 182 kts 85°
2026-05-03 22:12 25.78364 -80.37598 1155 ft 172 kts 85°
2026-05-03 22:13 25.78416 -80.36300 939 ft 163 kts 85°
2026-05-03 22:13 25.78464 -80.35086 746 ft 153 kts 85°
2026-05-03 22:13 25.78514 -80.33918 546 ft 152 kts 86°
2026-05-03 22:13 25.78560 -80.32750 347 ft 151 kts 87°
2026-05-03 22:14 25.78609 -80.31590 142 ft 148 kts 87°
2026-05-03 22:14 25.78652 -80.30479 19 ft 136 kts 86°
2026-05-03 22:14 25.78691 -80.29544 18 ft 105 kts 87°
2026-05-03 22:14 25.78721 -80.28899 21 ft 56 kts 83°
2026-05-03 22:15 25.78806 -80.28694 21 ft 7 kts 42°
2026-05-03 22:15 25.78816 -80.28685 21 ft 1 kts 41°
2026-05-03 22:15 25.78822 -80.28678 21 ft 2 kts 40°
2026-05-03 22:15 25.78865 -80.28664 21 ft 11 kts 344°
2026-05-03 22:16 25.78933 -80.28702 21 ft 10 kts 306°
2026-05-03 22:16 25.78948 -80.28781 21 ft 12 kts 271°
2026-05-03 22:16 25.78976 -80.28863 21 ft 11 kts 328°
2026-05-03 22:16 25.79048 -80.28876 21 ft 10 kts 358°
2026-05-03 22:17 25.79116 -80.28920 21 ft 13 kts 306°
2026-05-03 22:17 25.79162 -80.29002 21 ft 12 kts 300°
2026-05-03 22:17 25.79202 -80.29082 20 ft 11 kts 299°
2026-05-03 22:17 25.79240 -80.29157 20 ft 8 kts 298°
2026-05-03 22:18 25.79224 -80.29200 20 ft 7 kts 233°
2026-05-03 22:18 25.79203 -80.29250 20 ft 7 kts 252°
2026-05-03 22:18 25.79196 -80.29276 19 ft 0 kts 255°